Gulkana, AK

11:41 PM AKDT on September 23, 2017 (GMT -0800)
Gulkana

Weather History for PAGK - July, 2012

Change the Weather History Date:

Saturday, July 14, 2012

  Actual Average Record
Temperature  
Mean Temperature 54 °F -  
Max Temperature 64 °F 68 °F 85 °F (1956)
Min Temperature 45 °F 46 °F 33 °F (2014)
Degree Days  
Heating Degree Days 10    
Growing Degree Days 4 (Base 50)    
Moisture  
Dew Point 41 °F    
Average Humidity 61    
Maximum Humidity 87    
Minimum Humidity 33    
Precipitation  
Precipitation 0.00 in - - ()
Sea Level Pressure  
Sea Level Pressure 30.15 in    
Wind  
Wind Speed 7 mph (SSE)    
Max Wind Speed 16 mph    
Max Gust Speed 22 mph    
Visibility 10 miles    
Events      
Averages and records for this station are not official NWS values.
T = Trace of Precipitation, MM = Missing Value Source: NWS Daily Summary

Daily Weather History Graph

Daily Weather History Graph

Search for Another Location

Airport or City:

Trip Planner

Search our weather history database for the weather conditions in past years. The results will help you decide how hot, cold, wet, or windy it might be!

Date:

Astronomy

Jul. 14, 2012 Rise Set
Actual Time 4:22 AM AKDT 11:11 PM AKDT
Civil Twilight 2:21 AM AKDT 1:05 AM AKDT
Nautical Twilight Sun does not set Sun does not set
Astronomical Twilight Sun does not set Sun does not set
Moon 12:58 AM AKDT (7/14) 7:39 PM AKDT (7/14)
Length of Visible Light 22h 44m
Length of Day
18h 49m
Waning Crescent, 17% of the Moon is Illuminated
Jul 14
Waning Crescent
Jul 18
New
Jul 26
First Quarter
Aug 1
Full
Aug 9
Last Quarter

Hourly Weather History & Observations

Time (AKDT) Temp. Windchill Dew Point Humidity Pressure Visibility Wind Dir Wind Speed Gust Speed Precip Events Conditions
12:53 AM 48.9 °F - 43.0 °F 80% 30.14 in 10.0 mi South 5.8 mph - N/A   Overcast
1:53 AM 48.0 °F - 42.1 °F 80% 30.15 in 10.0 mi South 6.9 mph - N/A   Overcast
2:53 AM 48.2 °F - 42.8 °F 82% 30.14 in 10.0 mi South 5.8 mph - N/A   Overcast
3:53 AM 46.0 °F 42.5 °F 42.1 °F 86% 30.18 in 10.0 mi South 6.9 mph - N/A   Overcast
4:53 AM 45.0 °F 40.6 °F 41.0 °F 86% 30.18 in 10.0 mi SSE 8.1 mph - N/A   Scattered Clouds
5:53 AM 46.0 °F 42.5 °F 42.1 °F 86% 30.18 in 10.0 mi South 6.9 mph - N/A   Overcast
6:02 AM 46.4 °F 42.4 °F 42.8 °F 87% 30.16 in 10.0 mi SSE 8.1 mph - N/A   Mostly Cloudy
6:53 AM 46.9 °F - 43.0 °F 86% 30.19 in 10.0 mi SSE 6.9 mph - N/A   Mostly Cloudy
7:53 AM 48.9 °F - 43.0 °F 80% 30.20 in 10.0 mi SSE 6.9 mph - N/A   Mostly Cloudy
8:53 AM 51.1 °F - 44.1 °F 77% 30.20 in 10.0 mi South 5.8 mph - N/A   Overcast
9:53 AM 54.0 °F - 45.0 °F 72% 30.19 in 10.0 mi Calm Calm - N/A   Overcast
10:53 AM 57.0 °F - 46.0 °F 67% 30.19 in 10.0 mi South 3.5 mph - N/A   Overcast
11:53 AM 59.0 °F - 45.0 °F 60% 30.19 in 10.0 mi Calm Calm - N/A   Overcast
12:53 PM 60.1 °F - 44.1 °F 55% 30.17 in 10.0 mi Variable 5.8 mph - N/A   Overcast
1:53 PM 62.1 °F - 41.0 °F 46% 30.17 in 10.0 mi Variable 3.5 mph - N/A   Overcast
2:53 PM 64.0 °F - 39.9 °F 41% 30.14 in 10.0 mi Variable 3.5 mph - N/A   Mostly Cloudy
3:53 PM 63.0 °F - 41.0 °F 45% 30.12 in 10.0 mi SSW 6.9 mph - N/A   Overcast
4:53 PM 63.0 °F - 42.1 °F 46% 30.11 in 10.0 mi SSE 12.7 mph - N/A   Overcast
5:53 PM 63.0 °F - 42.1 °F 46% 30.10 in 10.0 mi SSE 11.5 mph - N/A   Overcast
6:53 PM 62.1 °F - 39.0 °F 43% 30.09 in 10.0 mi SSE 13.8 mph 19.6 mph N/A   Overcast
7:53 PM 61.0 °F - 37.0 °F 41% 30.09 in 10.0 mi SSE 13.8 mph 19.6 mph N/A   Overcast
8:53 PM 57.9 °F - 36.0 °F 44% 30.09 in 10.0 mi SSE 12.7 mph - N/A   Overcast
9:28 PM 57.2 °F - 35.6 °F 44% 30.08 in 10.0 mi SSE 16.1 mph 21.9 mph N/A   Overcast
9:53 PM 55.9 °F - 35.1 °F 45% 30.10 in 10.0 mi SSE 12.7 mph - N/A   Overcast
10:53 PM 55.0 °F - 36.0 °F 49% 30.11 in 10.0 mi South 13.8 mph 21.9 mph N/A   Overcast
11:53 PM 53.1 °F - 37.0 °F 55% 30.12 in 10.0 mi SSE 12.7 mph 20.7 mph N/A   Overcast